Time,TemperatureF,DewpointF,PressureIn,WindDirection,WindDirectionDegrees,WindSpeedMPH,WindSpeedGustMPH,Humidity,HourlyPrecipIn,Conditions,Clouds,dailyrainin,SoftwareType,DateUTC
2013-03-18 00:03:00,35.0,27.0,30.05,NNW,336,1.0,10.0,71,0.00,,,0.00,,2013-03-18 04:03:00,
2013-03-18 00:13:00,35.0,27.0,30.05,NNW,336,1.0,10.0,71,0.00,,,0.00,,2013-03-18 04:13:00,
2013-03-18 00:23:00,35.0,27.0,30.05,South,175,3.0,6.0,71,0.00,,,0.00,,2013-03-18 04:23:00,
2013-03-18 00:33:00,35.0,27.0,30.04,SSE,163,5.0,9.0,71,0.00,,,0.00,,2013-03-18 04:33:00,
2013-03-18 00:42:00,35.0,27.0,30.04,SSE,163,5.0,9.0,71,0.00,,,0.00,,2013-03-18 04:42:00,
2013-03-18 00:53:00,35.0,27.0,30.04,SSE,167,3.0,7.0,72,0.00,,,0.00,,2013-03-18 04:53:00,
2013-03-18 01:03:00,35.0,28.0,30.04,SE,129,4.0,8.0,74,0.00,,,0.00,,2013-03-18 05:03:00,
2013-03-18 01:12:00,35.0,28.0,30.04,SE,129,4.0,8.0,74,0.00,,,0.00,,2013-03-18 05:12:00,
2013-03-18 01:22:00,34.0,27.0,30.04,NNE,24,2.0,7.0,75,0.00,,,0.00,,2013-03-18 05:22:00,
2013-03-18 01:32:00,34.0,28.0,30.03,North,5,2.0,8.0,77,0.00,,,0.00,,2013-03-18 05:32:00,
2013-03-18 01:43:00,34.0,28.0,30.03,North,5,2.0,8.0,77,0.00,,,0.00,,2013-03-18 05:43:00,
2013-03-18 01:52:00,34.0,28.0,30.03,North,5,3.0,12.0,80,0.00,,,0.00,,2013-03-18 05:52:00,
2013-03-18 02:02:00,33.0,28.0,30.03,NW,321,3.0,12.0,83,0.00,,,0.00,,2013-03-18 06:02:00,
2013-03-18 02:12:00,33.0,28.0,30.03,NW,321,3.0,12.0,83,0.00,,,0.00,,2013-03-18 06:12:00,
2013-03-18 02:22:00,33.0,29.0,30.02,SW,236,3.0,11.0,85,0.00,,,0.00,,2013-03-18 06:22:00,
2013-03-18 02:32:00,33.0,29.0,30.01,East,101,4.0,12.0,86,0.01,,,0.01,,2013-03-18 06:32:00,
2013-03-18 02:42:00,33.0,29.0,30.01,East,101,4.0,12.0,86,0.01,,,0.01,,2013-03-18 06:42:00,
2013-03-18 02:53:00,33.0,30.0,30.01,South,184,4.0,9.0,87,0.01,,,0.01,,2013-03-18 06:53:00,
2013-03-18 03:02:00,32.0,29.0,30.01,West,276,3.0,14.0,87,0.02,,,0.02,,2013-03-18 07:02:00,
2013-03-18 03:12:00,32.0,29.0,30.01,West,276,3.0,14.0,87,0.02,,,0.02,,2013-03-18 07:12:00,
2013-03-18 03:23:00,32.0,29.0,30.00,WNW,296,3.0,12.0,87,0.02,,,0.02,,2013-03-18 07:23:00,
2013-03-18 03:33:00,32.0,29.0,30.00,NNE,30,4.0,12.0,87,0.02,,,0.03,,2013-03-18 07:33:00,
2013-03-18 03:42:00,32.0,29.0,30.00,NNE,30,4.0,12.0,87,0.02,,,0.03,,2013-03-18 07:42:00,
2013-03-18 03:53:00,32.0,29.0,30.00,WNW,297,4.0,13.0,87,0.03,,,0.04,,2013-03-18 07:53:00,
2013-03-18 04:02:00,32.0,29.0,29.99,South,184,4.0,11.0,88,0.02,,,0.04,,2013-03-18 08:02:00,
2013-03-18 04:12:00,32.0,29.0,29.99,South,184,4.0,11.0,88,0.02,,,0.04,,2013-03-18 08:12:00,
2013-03-18 04:22:00,32.0,29.0,29.99,South,181,4.0,9.0,88,0.04,,,0.06,,2013-03-18 08:22:00,
2013-03-18 04:32:00,32.0,29.0,29.98,ENE,59,5.0,12.0,88,0.04,,,0.07,,2013-03-18 08:32:00,
2013-03-18 04:43:00,32.0,29.0,29.98,ENE,59,5.0,12.0,88,0.04,,,0.07,,2013-03-18 08:43:00,
2013-03-18 04:53:00,32.0,29.0,29.98,South,185,5.0,12.0,88,0.07,,,0.10,,2013-03-18 08:53:00,
2013-03-18 05:02:00,32.0,29.0,29.97,West,278,5.0,13.0,89,0.08,,,0.12,,2013-03-18 09:02:00,
2013-03-18 05:12:00,32.0,29.0,29.97,West,278,5.0,13.0,89,0.08,,,0.12,,2013-03-18 09:12:00,
2013-03-18 05:22:00,32.0,29.0,29.97,West,278,0.0,13.0,89,0.08,,,0.13,,2013-03-18 09:22:00,
2013-03-18 05:33:00,32.0,29.0,29.97,West,278,0.0,0.0,89,0.06,,,0.13,,2013-03-18 09:33:00,
2013-03-18 05:43:00,32.0,29.0,29.97,West,278,0.0,0.0,89,0.06,,,0.13,,2013-03-18 09:43:00,
2013-03-18 05:53:00,32.0,29.0,29.97,West,278,0.0,0.0,89,0.04,,,0.14,,2013-03-18 09:53:00,
2013-03-18 06:03:00,32.0,29.0,29.96,West,278,0.0,0.0,89,0.02,,,0.14,,2013-03-18 10:03:00,
2013-03-18 06:13:00,32.0,29.0,29.96,West,278,0.0,0.0,89,0.02,,,0.14,,2013-03-18 10:13:00,
2013-03-18 06:23:00,32.0,29.0,29.97,West,278,0.0,0.0,89,0.01,,,0.14,,2013-03-18 10:23:00,
2013-03-18 06:33:00,32.0,29.0,29.96,West,278,0.0,0.0,89,0.01,,,0.14,,2013-03-18 10:33:00,
2013-03-18 06:42:00,32.0,29.0,29.96,West,278,0.0,0.0,89,0.01,,,0.14,,2013-03-18 10:42:00,
2013-03-18 06:53:00,32.0,29.0,29.95,West,278,0.0,0.0,89,0.01,,,0.15,,2013-03-18 10:53:00,
2013-03-18 07:03:00,32.0,29.0,29.94,West,278,0.0,0.0,89,0.01,,,0.15,,2013-03-18 11:03:00,
2013-03-18 07:13:00,32.0,29.0,29.94,West,278,0.0,0.0,89,0.01,,,0.15,,2013-03-18 11:13:00,
2013-03-18 07:22:00,32.0,29.0,29.94,West,278,0.0,0.0,88,0.01,,,0.15,,2013-03-18 11:22:00,
2013-03-18 07:32:00,32.0,29.0,29.93,West,278,0.0,0.0,87,0.01,,,0.15,,2013-03-18 11:32:00,
2013-03-18 07:42:00,32.0,29.0,29.93,West,278,0.0,0.0,87,0.01,,,0.15,,2013-03-18 11:42:00,
2013-03-18 07:52:00,32.0,28.0,29.93,West,278,0.0,0.0,86,0.00,,,0.15,,2013-03-18 11:52:00,
2013-03-18 08:03:00,32.0,28.0,29.92,West,278,0.0,0.0,86,0.00,,,0.15,,2013-03-18 12:03:00,
2013-03-18 08:13:00,32.0,28.0,29.92,West,278,0.0,0.0,86,0.00,,,0.15,,2013-03-18 12:13:00,
2013-03-18 08:22:00,32.0,28.0,29.91,West,278,0.0,0.0,86,0.00,,,0.15,,2013-03-18 12:22:00,
2013-03-18 08:32:00,33.0,29.0,29.90,West,278,0.0,0.0,85,0.00,,,0.15,,2013-03-18 12:32:00,
2013-03-18 08:43:00,33.0,29.0,29.90,West,278,0.0,0.0,85,0.00,,,0.15,,2013-03-18 12:43:00,
2013-03-18 08:52:00,33.0,29.0,29.90,West,278,0.0,0.0,86,0.00,,,0.15,,2013-03-18 12:52:00,
2013-03-18 09:02:00,33.0,29.0,29.90,West,278,0.0,0.0,85,0.00,,,0.15,,2013-03-18 13:02:00,
2013-03-18 09:12:00,33.0,29.0,29.90,West,278,0.0,0.0,85,0.00,,,0.15,,2013-03-18 13:12:00,
2013-03-18 09:22:00,33.0,29.0,29.89,West,278,0.0,0.0,86,0.01,,,0.16,,2013-03-18 13:22:00,
2013-03-18 09:33:00,34.0,30.0,29.90,West,277,0.0,0.0,86,0.02,,,0.17,,2013-03-18 13:33:00,
2013-03-18 09:42:00,34.0,30.0,29.90,West,277,0.0,0.0,86,0.02,,,0.17,,2013-03-18 13:42:00,
2013-03-18 09:52:00,34.0,30.0,29.89,SSW,205,5.0,10.0,86,0.03,,,0.18,,2013-03-18 13:52:00,
2013-03-18 10:02:00,34.0,30.0,29.88,South,184,4.0,10.0,86,0.04,,,0.19,,2013-03-18 14:02:00,
2013-03-18 10:12:00,34.0,30.0,29.88,South,184,4.0,10.0,86,0.04,,,0.19,,2013-03-18 14:12:00,
2013-03-18 10:22:00,34.0,30.0,29.88,WSW,243,5.0,9.0,86,0.04,,,0.20,,2013-03-18 14:22:00,
2013-03-18 10:32:00,34.0,30.0,29.87,SSE,157,5.0,9.0,86,0.05,,,0.22,,2013-03-18 14:32:00,
2013-03-18 10:42:00,34.0,30.0,29.87,SSE,157,5.0,9.0,86,0.05,,,0.22,,2013-03-18 14:42:00,
2013-03-18 10:52:00,35.0,31.0,29.87,WNW,285,3.0,8.0,86,0.05,,,0.23,,2013-03-18 14:52:00,
2013-03-18 11:02:00,35.0,31.0,29.88,North,5,3.0,13.0,85,0.05,,,0.24,,2013-03-18 15:02:00,
2013-03-18 11:12:00,35.0,31.0,29.88,North,5,3.0,13.0,85,0.05,,,0.24,,2013-03-18 15:12:00,
2013-03-18 11:22:00,35.0,31.0,29.88,South,173,5.0,10.0,85,0.04,,,0.24,,2013-03-18 15:22:00,
2013-03-18 11:33:00,35.0,32.0,29.87,West,273,3.0,7.0,87,0.06,,,0.28,,2013-03-18 15:33:00,
2013-03-18 11:43:00,35.0,32.0,29.87,West,273,3.0,7.0,87,0.06,,,0.28,,2013-03-18 15:43:00,
2013-03-18 11:52:00,35.0,32.0,29.87,SE,137,5.0,9.0,88,0.12,,,0.35,,2013-03-18 15:52:00,
2013-03-18 12:03:00,34.0,31.0,29.86,South,173,4.0,12.0,89,0.21,,,0.45,,2013-03-18 16:03:00,
2013-03-18 12:12:00,34.0,31.0,29.86,South,173,4.0,12.0,89,0.21,,,0.45,,2013-03-18 16:12:00,
2013-03-18 12:23:00,34.0,31.0,29.86,South,174,7.0,11.0,90,0.27,,,0.51,,2013-03-18 16:23:00,
2013-03-18 12:33:00,34.0,32.0,29.85,South,182,6.0,11.0,91,0.29,,,0.57,,2013-03-18 16:33:00,
2013-03-18 12:42:00,34.0,32.0,29.85,South,182,6.0,11.0,91,0.29,,,0.57,,2013-03-18 16:42:00,
2013-03-18 12:52:00,34.0,32.0,29.85,SSW,209,6.0,12.0,91,0.25,,,0.60,,2013-03-18 16:52:00,
2013-03-18 13:02:00,34.0,32.0,29.83,South,182,5.0,9.0,92,0.20,,,0.62,,2013-03-18 17:02:00,
2013-03-18 13:12:00,34.0,32.0,29.83,South,182,5.0,9.0,92,0.20,,,0.62,,2013-03-18 17:12:00,
2013-03-18 13:22:00,35.0,33.0,29.82,SSE,163,5.0,9.0,92,0.16,,,0.66,,2013-03-18 17:22:00,
2013-03-18 13:32:00,36.0,34.0,29.81,ESE,110,3.0,11.0,92,0.11,,,0.68,,2013-03-18 17:32:00,
2013-03-18 13:42:00,36.0,34.0,29.81,ESE,110,3.0,11.0,92,0.11,,,0.68,,2013-03-18 17:42:00,
2013-03-18 13:52:00,37.0,35.0,29.82,ENE,67,1.0,11.0,92,0.09,,,0.69,,2013-03-18 17:52:00,
2013-03-18 14:02:00,37.0,35.0,29.83,SSE,161,1.0,6.0,91,0.05,,,0.69,,2013-03-18 18:02:00,
2013-03-18 14:12:00,37.0,35.0,29.83,SSE,161,1.0,6.0,91,0.05,,,0.69,,2013-03-18 18:12:00,
2013-03-18 14:22:00,37.0,35.0,29.82,NNW,346,1.0,7.0,91,0.03,,,0.69,,2013-03-18 18:22:00,
2013-03-18 14:32:00,37.0,35.0,29.81,SSE,153,3.0,8.0,91,0.01,,,0.69,,2013-03-18 18:32:00,
2013-03-18 14:42:00,37.0,35.0,29.81,SSE,153,3.0,8.0,91,0.01,,,0.69,,2013-03-18 18:42:00,
2013-03-18 14:52:00,38.0,35.0,29.80,SSE,148,3.0,7.0,90,0.01,,,0.70,,2013-03-18 18:52:00,
2013-03-18 15:02:00,38.0,35.0,29.80,WSW,238,2.0,7.0,90,0.01,,,0.70,,2013-03-18 19:02:00,
2013-03-18 15:12:00,38.0,35.0,29.80,WSW,238,2.0,7.0,90,0.01,,,0.70,,2013-03-18 19:12:00,
2013-03-18 15:22:00,38.0,36.0,29.79,South,179,3.0,8.0,91,0.03,,,0.72,,2013-03-18 19:22:00,
2013-03-18 15:33:00,38.0,36.0,29.78,SSE,159,3.0,6.0,91,0.05,,,0.74,,2013-03-18 19:33:00,
2013-03-18 15:42:00,38.0,36.0,29.78,SSE,159,3.0,6.0,91,0.05,,,0.74,,2013-03-18 19:42:00,
2013-03-18 15:52:00,39.0,37.0,29.77,West,263,1.0,7.0,92,0.05,,,0.75,,2013-03-18 19:52:00,
2013-03-18 16:03:00,39.0,37.0,29.76,South,188,3.0,7.0,92,0.05,,,0.75,,2013-03-18 20:03:00,
2013-03-18 16:12:00,39.0,37.0,29.76,South,188,3.0,7.0,92,0.05,,,0.75,,2013-03-18 20:12:00,
2013-03-18 16:23:00,39.0,37.0,29.76,SSW,198,2.0,9.0,91,0.03,,,0.75,,2013-03-18 20:23:00,
2013-03-18 16:33:00,40.0,38.0,29.75,South,188,4.0,8.0,91,0.01,,,0.75,,2013-03-18 20:33:00,
2013-03-18 16:42:00,40.0,38.0,29.75,South,188,4.0,8.0,91,0.01,,,0.75,,2013-03-18 20:42:00,
2013-03-18 16:52:00,41.0,39.0,29.75,SSE,163,2.0,6.0,92,0.00,,,0.75,,2013-03-18 20:52:00,
2013-03-18 17:02:00,42.0,40.0,29.75,NE,45,4.0,7.0,92,0.00,,,0.75,,2013-03-18 21:02:00,
2013-03-18 17:12:00,42.0,40.0,29.75,NE,45,4.0,7.0,92,0.00,,,0.75,,2013-03-18 21:12:00,
2013-03-18 17:22:00,42.0,40.0,29.73,North,360,2.0,7.0,91,0.00,,,0.75,,2013-03-18 21:22:00,
2013-03-18 17:33:00,43.0,40.0,29.71,South,180,2.0,7.0,89,0.00,,,0.75,,2013-03-18 21:33:00,
2013-03-18 17:43:00,43.0,40.0,29.71,South,180,2.0,7.0,89,0.00,,,0.75,,2013-03-18 21:43:00,
2013-03-18 17:53:00,43.0,39.0,29.72,South,177,1.0,6.0,87,0.00,,,0.75,,2013-03-18 21:53:00,
2013-03-18 18:03:00,43.0,39.0,29.73,SSW,197,1.0,6.0,87,0.00,,,0.75,,2013-03-18 22:03:00,
2013-03-18 18:13:00,43.0,39.0,29.73,SSW,197,1.0,6.0,87,0.00,,,0.75,,2013-03-18 22:13:00,
2013-03-18 18:23:00,44.0,40.0,29.74,NE,41,1.0,3.0,86,0.00,,,0.75,,2013-03-18 22:23:00,
2013-03-18 18:33:00,44.0,40.0,29.73,SSW,205,0.0,6.0,85,0.00,,,0.75,,2013-03-18 22:33:00,
2013-03-18 18:42:00,44.0,40.0,29.73,SSW,205,0.0,6.0,85,0.00,,,0.75,,2013-03-18 22:42:00,
2013-03-18 18:53:00,44.0,40.0,29.73,SE,136,1.0,4.0,85,0.00,,,0.75,,2013-03-18 22:53:00,
2013-03-18 19:03:00,44.0,39.0,29.72,West,271,1.0,6.0,84,0.00,,,0.75,,2013-03-18 23:03:00,
2013-03-18 19:13:00,44.0,39.0,29.72,West,271,1.0,6.0,84,0.00,,,0.75,,2013-03-18 23:13:00,
2013-03-18 19:22:00,43.0,38.0,29.72,South,169,2.0,7.0,84,0.00,,,0.75,,2013-03-18 23:22:00,
2013-03-18 19:33:00,43.0,38.0,29.73,SSW,192,2.0,7.0,84,0.00,,,0.75,,2013-03-18 23:33:00,
2013-03-18 19:42:00,43.0,38.0,29.73,SSW,192,2.0,7.0,84,0.00,,,0.75,,2013-03-18 23:42:00,
2013-03-18 19:53:00,43.0,38.0,29.73,South,182,3.0,7.0,83,0.00,,,0.75,,2013-03-18 23:53:00,
2013-03-18 20:02:00,43.0,38.0,29.73,North,360,3.0,8.0,84,0.00,,,0.75,,2013-03-19 00:02:00,
2013-03-18 20:12:00,43.0,38.0,29.73,North,360,3.0,8.0,84,0.00,,,0.75,,2013-03-19 00:12:00,
2013-03-18 20:23:00,42.0,38.0,29.73,WNW,299,1.0,8.0,85,0.00,,,0.75,,2013-03-19 00:23:00,
2013-03-18 20:32:00,41.0,37.0,29.72,NE,43,2.0,6.0,85,0.00,,,0.75,,2013-03-19 00:32:00,
2013-03-18 20:42:00,41.0,37.0,29.72,NE,43,2.0,6.0,85,0.00,,,0.75,,2013-03-19 00:42:00,
2013-03-18 20:52:00,41.0,37.0,29.73,NNE,29,2.0,5.0,85,0.00,,,0.75,,2013-03-19 00:52:00,
2013-03-18 21:02:00,40.0,36.0,29.73,NE,51,3.0,7.0,86,0.00,,,0.75,,2013-03-19 01:02:00,
2013-03-18 21:12:00,40.0,36.0,29.73,NE,51,3.0,7.0,86,0.00,,,0.75,,2013-03-19 01:12:00,
2013-03-18 21:23:00,40.0,36.0,29.73,SSW,212,0.0,7.0,87,0.00,,,0.75,,2013-03-19 01:23:00,
2013-03-18 21:32:00,40.0,36.0,29.72,SSW,192,2.0,6.0,87,0.00,,,0.75,,2013-03-19 01:32:00,
2013-03-18 21:43:00,40.0,36.0,29.72,SSW,192,2.0,6.0,87,0.00,,,0.75,,2013-03-19 01:43:00,
2013-03-18 21:52:00,41.0,37.0,29.73,South,178,2.0,8.0,85,0.00,,,0.75,,2013-03-19 01:52:00,
2013-03-18 22:03:00,41.0,37.0,29.73,WSW,254,1.0,5.0,85,0.00,,,0.75,,2013-03-19 02:03:00,
2013-03-18 22:13:00,41.0,37.0,29.73,WSW,254,1.0,5.0,85,0.00,,,0.75,,2013-03-19 02:13:00,
2013-03-18 22:23:00,41.0,37.0,29.72,SE,132,0.0,5.0,86,0.00,,,0.75,,2013-03-19 02:23:00,
2013-03-18 22:33:00,41.0,37.0,29.72,South,190,2.0,6.0,86,0.00,,,0.75,,2013-03-19 02:33:00,
2013-03-18 22:42:00,41.0,37.0,29.72,South,190,2.0,6.0,86,0.00,,,0.75,,2013-03-19 02:42:00,
2013-03-18 22:53:00,41.0,37.0,29.72,ENE,60,2.0,6.0,87,0.00,,,0.75,,2013-03-19 02:53:00,
2013-03-18 23:02:00,41.0,37.0,29.72,East,94,1.0,4.0,87,0.00,,,0.75,,2013-03-19 03:02:00,
2013-03-18 23:12:00,41.0,37.0,29.72,East,94,1.0,4.0,87,0.00,,,0.75,,2013-03-19 03:12:00,
2013-03-18 23:22:00,41.0,37.0,29.71,SE,138,3.0,6.0,87,0.00,,,0.75,,2013-03-19 03:22:00,
2013-03-18 23:33:00,41.0,38.0,29.71,NE,38,0.0,4.0,88,0.00,,,0.75,,2013-03-19 03:33:00,
2013-03-18 23:43:00,41.0,38.0,29.71,NE,38,0.0,4.0,88,0.00,,,0.75,,2013-03-19 03:43:00,
2013-03-18 23:54:00,41.0,37.0,29.71,SSE,147,0.0,4.0,87,0.00,,,0.75,,2013-03-19 03:54:00,